Truro, United Kingdom
Current Conditions -  °F | °C
As of 2:20 PM on Thursday 30 Oct 2014 (Local Time) from EGHQ Reporting Station
Moderate Fog Moderate Fog  
Wind Chill: 57°   Ceiling: Unl
Heat Index: 57°   Visibility: 0.18mi
Dew Point: 57°   Wind: 14mph
Humidity: 100%   Direction: 170°S
Pressure: 29.97"   Gusts: NA
Location:  50.27°N, 5.05°W
Report Text: EGHQ 301420Z 17012KT 0300 R12/0900 FG VV/// 14/14 Q1015
Loading
Personal Weather Stations






























Interactive Weather Map
Tropical Storm Tracking
New forecast layout! Learn more

10-Day Weather Forecast

Advertisements
Track Severe Weather on mobile